Tracking 23731 objects as of 27-Sep-2021
HD Live streaming from Space Station
objects crossing your sky now

STARLINK-2281

Track STARLINK-2281 now!
10-day predictions
STARLINK-2281 is classified as:


NORAD ID: 48015
Int'l Code: 2021-024AQ
Perigee: 355.8 km
Apogee: 357.7 km
Inclination: 53.0 °
Period: 91.5 minutes
Semi major axis: 6727 km
RCS: Unknown
Launch date: March 24, 2021
Source: United States (US)
Launch site: AIR FORCE EASTERN TEST RANGE (AFETR)
aabbcc
Your satellite tracking list
Your tracking list is empty




NASA's NSSDC Master Catalog

Two Line Element Set (TLE):
1 48015U 21024AQ  21270.25002315 -.00039575  00000-0 -27828-3 0  9998
2 48015  53.0470 355.3695 0001397  56.4893  42.9002 15.73244909 30217
Source of the keplerian elements: AFSPC